Regional Weather Roundup
Issued by NWS Kansas City/Pleasant Hill, MO

Home | Current Version | Previous Version | Text Only | Print | Product List | Glossary On
Versions: 1 2 3 4 5 6 7 8 9 10 11 12 13 14 15 16 17 18 19 20 21 22 23 24 25 26 27 28 29 30 31 32 33 34 35 36 37 38 39 40 41 42 43 44 45 46 47 48 49 50
000
ASUS43 KEAX 241110
RWREAX

WEATHER ROUNDUP FOR EASTERN KANSAS AND NORTHWEST MISSOURI
NATIONAL WEATHER SERVICE KANSAS CITY/PLEASANT HILL MO
600 AM CDT FRI OCT 24 2014

KSZ040-057-103>105-MOZ028-029-037-043-241200-
...KANSAS CITY METROPOLITAN AREA...

CITY           SKY/WX    TMP DP  RH WIND       PRES   REMARKS
K.C. INTL      FOG       57  57 100 S7        30.05S VSB 1/2
K.C. DOWNTOWN  PTCLDY    58  56  93 CALM      30.05S FOG
LEES SUMMIT    CLEAR     55  54  96 S5        30.06S FOG
OLATHE - IXD   FOG       54  54 100 S7        30.05F VSB 1/2
OLATHE - OJC   CLOUDY    55  55 100 S7        30.05S FOG
LAWRENCE       FOG       54  53  97 CALM      30.05S VSB 1/2

$$

MOZ001>008-011>017-020>025-030>033-038>040-044>046-053-054-241200-
...NORTHERN AND CENTRAL MISSOURI...

CITY           SKY/WX    TMP DP  RH WIND       PRES   REMARKS
ST. JOSEPH     CLOUDY    55  55 100 S6        30.05R FOG
MOSBY          FOG       55  55 100 CALM      30.06S VSB 1/2
WHITEMAN AFB   CLOUDY    58  56  93 SW7       30.08S
CLINTON        FOG       54  54 100 CALM      30.10S VSB 1/2
SEDALIA        CLOUDY    60  57  89 SW6       30.10S FOG
WARSAW         NOT AVBL
MARSHALL       CLOUDY    61  59  94 SW6       30.10R FOG
CHILLICOTHE      N/A     57  56  96 S5        30.07S
MOBERLY        FOG       55  52  88 SW5       30.08S VSB 1/4
KIRKSVILLE     FOG       55  55 100 SW3       30.07S VSB 1/4

$$

MOZ041-047>049-056>058-063>065-088>090-097-241200-
...EASTERN AND SOUTHERN MISSOURI...

CITY           SKY/WX    TMP DP  RH WIND       PRES   REMARKS
ST. LOUIS INTL PTCLDY    55  49  80 W3        30.10S
SPIRIT OF STL  MOCLDY    51  49  92 CALM      30.09F
COLUMBIA       FOG       53  53 100 S5        30.09F VSB 1/4
JEFFERSON CITY FOG       46  45  96 CALM      30.10S VSB 1/2
MEXICO         FOG      N/A N/A N/A CALM      30.09S VSB 1/4
HANNIBAL       FOG       54  52  94 CALM      30.09R VSB 1/4
ROLLA          CLEAR     48  46  93 SW6       30.10R FOG
LEBANON        CLOUDY    55  54  94 CALM      30.12S FOG
OSAGE BEACH    CLOUDY    59  55  88 CALM      30.11F
SPRINGFIELD    CLEAR     49  47  93 S3        30.11S
BRANSON        CLEAR     50  48  93 CALM      30.13F
NEVADA         CLEAR     52  52 100 S7        30.10F FOG
JOPLIN         PTCLDY    52  50  93 S6        30.11F
WEST PLAINS    CLEAR     45  43  93 CALM      30.13S

$$

IAZ060-094-KSZ022-034>040-054-083-096-NEZ052-066-093-241200-
...KANSAS...SOUTHEAST NEBRASKA AND IOWA...

CITY           SKY/WX    TMP DP  RH WIND       PRES   REMARKS
TOPEKA         PTCLDY    58  57  97 CALM      30.05R FOG
MANHATTAN      MOCLDY    57  56  96 CALM      30.03R
EMPORIA        CLOUDY    57  57 100 S13       30.04S FOG
CHANUTE        PTCLDY    54  53  97 S6        30.08F
WICHITA        MOCLDY    57  54  89 S7        30.05S FOG
OMAHA          MOCLDY    56  54  93 S10       29.95F
LINCOLN        MOCLDY    60  57  89 S8        29.96F FOG
FALLS CITY     PTCLDY    59  57  93 S6        30.01S FOG
LAMONI         FOG       57  57 100 S7        30.03S VSB 1/4
DES MOINES     FOG       57  56  96 S7        29.99F VSB 1/8

$$




USA.gov is the U.S. government's official web portal to all federal, state and local government web resources and services.